User: anonymous   Login
Location: Prague
(50.0830°N, 14.4670°E)
Time: 04:49:30
(UTC+01:00)
Language:

SEEDS - Orbit

View from above orbital plane
View from above orbital plane
View from above satellite
View from above satellite

Ground track
Ground track

The orbit data is extracted from the following two-line orbital elements,

1 32791U 08021J   21332.72587800  .00000719  00000-0  76794-4 0  9995
2 32791  97.5896 311.1215 0014118 134.1543 226.0839 14.91670708737266
Epoch (UTC): 28 November 2021 17:25:15
Eccentricity: 0.0014118
inclination: 97.5896°
perigee height: 583 km
apogee height: 602 km
right ascension of ascending node: 311.1215°
argument of perigee: 134.1543°
revolutions per day: 14.91670708
mean anomaly at epoch: 226.0839°
orbit number at epoch: 73726

The dashed part of the orbit path shows where the satellite is in the earth's shadow,  

DLR